King Salmon, AK

9:17 AM AKDT on April 24, 2018 (GMT -0800)
King Salmon

Weather History for PAKN - January, 2014

Change the Weather History Date:

Friday, January 31, 2014

  Actual Average Record
Temperature  
Mean Temperature 40 °F 17 °F  
Max Temperature 43 °F 24 °F 50 °F (1994)
Min Temperature 36 °F 9 °F -36 °F (1993)
Degree Days  
Heating Degree Days 25 48  
Month to date heating degree days 927 1513  
Since 1 July heating degree days 5170 6328  
Cooling Degree Days 0 0  
Month to date cooling degree days 0 0  
Year to date cooling degree days 0 0  
Moisture  
Dew Point 38 °F    
Average Humidity 0    
Maximum Humidity 0    
Minimum Humidity 0    
Precipitation  
Precipitation 0.02 in 0.03 in 0.48 in (1974)
Month to date precipitation 1.75 1.02  
Year to date precipitation 1.75 1.02  
Snow  
Snow 0.00 in 0.30 in - ()
Month to date snowfall 10.6 10.2  
Since 1 July snowfall 25.4 29.5  
Since 1 September snowfall 29.5  
Snow Depth 0.00 in    
Sea Level Pressure  
Sea Level Pressure 30.21 in    
Wind  
Wind Speed 5 mph (SSE)    
Max Wind Speed 6 mph    
Max Gust Speed 6 mph    
Visibility 8 miles    
Events Rain    
T = Trace of Precipitation, MM = Missing Value Source: NWS Daily Summary

Daily Weather History Graph

Daily Weather History Graph

Search for Another Location

Airport or City:

Astronomy

Jan. 31, 2014 Rise Set
Actual Time 9:35 AM AKST 5:45 PM AKST
Civil Twilight 8:49 AM AKST 6:31 PM AKST
Nautical Twilight 8:01 AM AKST 7:19 PM AKST
Astronomical Twilight 7:14 AM AKST 8:06 PM AKST
Moon 9:24 AM AKST (1/31) 7:57 PM AKST (1/31)
Length of Visible Light 9h 41m
Length of Day
8h 10m
New Moon, 1% of the Moon is Illuminated
Jan 31
New Moon
Feb 6
First Quarter
Feb 14
Full
Feb 22
Last Quarter
Feb 28
New

Hourly Weather History & Observations

Time (AKST) Temp. Windchill Dew Point Humidity Pressure Visibility Wind Dir Wind Speed Gust Speed Precip Events Conditions
12:54 AM 41.0 °F 33.9 °F 37.0 °F 86% 30.10 in 10.0 mi SE 12.7 mph - 0.00 in Rain Light Rain
1:54 AM 41.0 °F 34.3 °F 37.0 °F 86% 30.12 in 10.0 mi SSE 11.5 mph - 0.00 in   Overcast
2:55 AM 41.0 °F 34.3 °F 37.0 °F 86% 30.12 in 10.0 mi SSE 11.5 mph - N/A   Overcast
3:54 AM 41.0 °F 33.5 °F 37.0 °F 86% 30.12 in 10.0 mi SSE 13.8 mph - N/A   Overcast
4:54 AM 41.0 °F 34.7 °F 37.0 °F 86% 30.13 in 10.0 mi SE 10.4 mph - N/A   Overcast
5:54 AM 39.9 °F 33.4 °F 37.0 °F 89% 30.14 in 10.0 mi SSE 10.4 mph - N/A   Overcast
6:54 AM 39.9 °F 34.5 °F 37.0 °F 89% 30.15 in 10.0 mi SSE 8.1 mph - N/A   Overcast
7:54 AM 39.9 °F 33.9 °F 37.0 °F 89% 30.16 in 10.0 mi SSE 9.2 mph - N/A   Overcast
8:54 AM 39.0 °F 34.8 °F 37.0 °F 93% 30.17 in 10.0 mi SSE 5.8 mph - 0.00 in Rain Light Rain
9:54 AM 39.9 °F 36.7 °F 37.0 °F 89% 30.18 in 10.0 mi SE 4.6 mph - 0.00 in Rain Light Rain
10:54 AM 39.9 °F 35.8 °F 37.9 °F 93% 30.19 in 10.0 mi SSE 5.8 mph - 0.00 in   Overcast
11:54 AM 41.0 °F 38.0 °F 39.0 °F 93% 30.20 in 10.0 mi South 4.6 mph - 0.00 in   Overcast
12:54 PM 41.0 °F - 37.9 °F 89% 30.20 in 10.0 mi Calm Calm - 0.00 in   Overcast
1:54 PM 43.0 °F - 39.0 °F 86% 30.20 in 10.0 mi Calm Calm - 0.00 in Rain Light Rain
2:54 PM 43.0 °F - 39.0 °F 86% 30.20 in 10.0 mi Calm Calm - 0.00 in Rain Light Rain
3:01 PM 42.8 °F - 39.2 °F 87% 30.20 in 10.0 mi Calm Calm - 0.00 in Rain Light Rain
3:54 PM 41.0 °F - 39.0 °F 93% 30.21 in 10.0 mi Calm Calm - 0.00 in Rain Light Rain
4:54 PM 41.0 °F - 39.0 °F 93% 30.22 in 10.0 mi Calm Calm - 0.00 in   Overcast
5:54 PM 39.0 °F - 37.9 °F 96% 30.22 in 10.0 mi Calm Calm - 0.00 in   Mostly Cloudy
6:54 PM 37.9 °F 35.5 °F 37.0 °F 97% 30.23 in 10.0 mi East 3.5 mph - N/A   Mostly Cloudy
7:08 PM 37.4 °F - 37.4 °F 100% 30.24 in 10.0 mi Calm Calm - N/A   Mostly Cloudy
7:54 PM 37.9 °F - 37.9 °F 100% 30.25 in 5.0 mi Calm Calm - 0.00 in Rain Light Rain
8:06 PM 37.4 °F - 37.4 °F 100% 30.25 in 6.0 mi Calm Calm - 0.00 in   Overcast
8:46 PM 37.4 °F - 37.4 °F 100% 30.25 in 9.0 mi Calm Calm - 0.00 in Rain Light Rain
8:54 PM 37.0 °F - 37.0 °F 100% 30.26 in 9.0 mi Calm Calm - 0.00 in Rain Light Rain
9:54 PM 37.9 °F 35.5 °F 37.9 °F 100% 30.27 in 10.0 mi SSE 3.5 mph - 0.02 in Rain Light Rain
10:11 PM 37.4 °F 34.9 °F 37.4 °F 100% 30.27 in 10.0 mi South 3.5 mph - 0.00 in   Overcast
10:28 PM 37.4 °F 34.9 °F 37.4 °F 100% 30.28 in 2.5 mi SW 3.5 mph - 0.00 in   Overcast
10:49 PM 37.4 °F - 37.4 °F 100% 30.28 in 1.0 mi Calm Calm - 0.00 in   Mist
10:54 PM 37.0 °F - 37.0 °F 100% 30.28 in 1.0 mi Calm Calm - 0.00 in   Mist
11:14 PM 37.4 °F - 37.4 °F 100% 30.28 in 1.2 mi Calm Calm - N/A   Overcast
11:46 PM 37.4 °F 34.9 °F 37.4 °F 100% 30.29 in 2.5 mi South 3.5 mph - N/A   Overcast
11:54 PM 36.0 °F 31.1 °F 36.0 °F 100% 30.29 in 3.0 mi SSE 5.8 mph - N/A   Overcast